Погода в Омдурмане

Судан     15°39′40″N   32°25′22″E
темп.,
°C
ветер,
м/с
пор.,
м/с
влажн.,
%
обл.,
%
осадки,
мм/ч
давл.,
гПа
погр.,
м
10 апреля, сб
сб1023:00+32ссз61298 0.0 1005314
02:00+29с815104 0.0 1004429
05:00+27с81590 0.0 1006398
08:00+30ссв1015100 0.0 1008705
11:00+36ссв101170 0.0 10081518
14:00+39ссв8751 0.0 10042816
17:00+37ссв8855 0.0 10052764
20:00+33с5965 0.0 1007291
11 апреля, вс
вс1123:00+30с71570 0.0 1008373
02:00+28ссв1017132 0.0 1008724
05:00+26ссв10191812 0.0 1009604
08:00+27ссв1116164 0.0 1012746
11:00+33ссв1112114 0.0 10111457
14:00+36ссв9975 0.0 10082241
17:00+35ссв9965 0.0 10072283
20:00+31с71185 0.0 1010418
12 апреля, пн
пн1223:00+28с81585 0.0 1011448
02:00+25с71375 0.0 1010319
05:00+23с71484 0.0 1011362
08:00+25с811110 0.0 1013456
11:00+32ссв56105 0.0 10121341
14:00+35с55611 0.0 10081908
17:00+35ссз7741 0.0 10081835
20:00+30ссз71263 0.0 1010385
13 апреля, вт
вт1323:00+28с7146100 0.0 1011389
02:00+25с61271 0.0 1011260
05:00+23с612919 0.0 1012269
08:00+26ссв8111042 0.0 1013456
11:00+33ссв66100 0.0 10121274
14:00+36с6660 0.0 10082020
17:00+36с66418 0.0 10082160
20:00+32с575100 0.0 1009223
14 апреля, ср
ср1423:00+29с611540 0.0 1011261
02:00+27с6126100 0.0 1010255
05:00+24ссв61485 0.0 1011288
08:00+28ссв81211100 0.0 1012466
11:00+35ссв88883 0.0 10111518
14:00+37ссв776100 0.0 10072436
17:00+37ссв7852 0.0 10062676
20:00+32с61175 0.0 1008327